Year,Month,Day,Hour,Minute,Value (Times are PST for temperature in C)
2007,10,27,00,00,1.60
2007,10,27,00,01,1.60
2007,10,27,00,02,1.60
2007,10,27,00,03,1.70
2007,10,27,00,04,1.70
2007,10,27,00,05,1.70
2007,10,27,00,06,1.70
2007,10,27,00,07,1.80
2007,10,27,00,08,1.80
2007,10,27,00,09,1.80
2007,10,27,00,10,1.80
2007,10,27,00,11,1.90
2007,10,27,00,12,1.90
2007,10,27,00,13,1.90
2007,10,27,00,14,1.90
2007,10,27,00,15,1.90
2007,10,27,00,16,1.90
2007,10,27,00,17,1.90
2007,10,27,00,18,1.90
2007,10,27,00,19,1.90
2007,10,27,00,20,1.90
2007,10,27,00,21,1.80
2007,10,27,00,22,1.80
2007,10,27,00,23,1.80
2007,10,27,00,24,1.80
2007,10,27,00,25,1.80
2007,10,27,00,26,1.80
2007,10,27,00,27,1.80
2007,10,27,00,28,1.80
2007,10,27,00,29,1.80
2007,10,27,00,30,1.80
2007,10,27,00,31,1.80
2007,10,27,00,32,1.80
2007,10,27,00,33,1.70
2007,10,27,00,34,1.70
2007,10,27,00,35,1.70
2007,10,27,00,36,1.70
2007,10,27,00,37,1.70
2007,10,27,00,38,1.70
2007,10,27,00,39,1.60
2007,10,27,00,40,1.60
2007,10,27,00,41,1.60
2007,10,27,00,42,1.70
2007,10,27,00,43,1.70
2007,10,27,00,44,1.60
2007,10,27,00,45,1.60
2007,10,27,00,46,1.60
2007,10,27,00,47,1.60
2007,10,27,00,48,1.60
2007,10,27,00,49,1.50
2007,10,27,00,50,1.50
2007,10,27,00,51,1.50
2007,10,27,00,52,1.50
2007,10,27,00,53,1.50
2007,10,27,00,54,1.40
2007,10,27,00,55,1.40
2007,10,27,00,56,1.40
2007,10,27,00,57,1.40
2007,10,27,00,58,1.30
2007,10,27,00,59,1.30
2007,10,27,01,00,1.30
2007,10,27,01,01,1.30
2007,10,27,01,02,1.30
2007,10,27,01,03,1.30
2007,10,27,01,04,1.30
2007,10,27,01,05,1.30
2007,10,27,01,06,1.30
2007,10,27,01,07,1.30
2007,10,27,01,08,1.30
2007,10,27,01,09,1.30
2007,10,27,01,10,1.30
2007,10,27,01,11,1.30
2007,10,27,01,12,1.30
2007,10,27,01,13,1.30
2007,10,27,01,14,1.30
2007,10,27,01,15,1.30
2007,10,27,01,16,1.30
2007,10,27,01,17,1.30
2007,10,27,01,18,1.30
2007,10,27,01,19,1.30
2007,10,27,01,20,1.40
2007,10,27,01,21,1.50
2007,10,27,01,22,1.60
2007,10,27,01,23,1.70
2007,10,27,01,24,1.80
2007,10,27,01,25,1.80
2007,10,27,01,26,1.90
2007,10,27,01,27,1.90
2007,10,27,01,28,1.90
2007,10,27,01,29,1.90
2007,10,27,01,30,1.90
2007,10,27,01,31,1.90
2007,10,27,01,32,1.80
2007,10,27,01,33,1.80
2007,10,27,01,34,1.80
2007,10,27,01,35,1.80
2007,10,27,01,36,1.80
2007,10,27,01,37,1.80
2007,10,27,01,38,1.80
2007,10,27,01,39,1.80
2007,10,27,01,40,1.80
2007,10,27,01,41,1.80
2007,10,27,01,42,1.80
2007,10,27,01,43,1.80
2007,10,27,01,44,1.80
2007,10,27,01,45,1.80
2007,10,27,01,46,1.80
2007,10,27,01,47,1.80
2007,10,27,01,48,1.80
2007,10,27,01,49,1.80
2007,10,27,01,50,1.80
2007,10,27,01,51,1.90
2007,10,27,01,52,1.90
2007,10,27,01,53,1.90
2007,10,27,01,54,1.90
2007,10,27,01,55,1.90
2007,10,27,01,56,1.90
2007,10,27,01,57,1.90
2007,10,27,01,58,1.90
2007,10,27,01,59,1.90
2007,10,27,02,00,1.90
2007,10,27,02,01,1.90
2007,10,27,02,02,1.90
2007,10,27,02,03,1.90
2007,10,27,02,04,1.90
2007,10,27,02,05,1.90
2007,10,27,02,06,1.90
2007,10,27,02,07,1.90
2007,10,27,02,08,1.90
2007,10,27,02,09,1.90
2007,10,27,02,10,1.90
2007,10,27,02,11,1.90
2007,10,27,02,12,1.90
2007,10,27,02,13,1.90
2007,10,27,02,14,1.90
2007,10,27,02,15,1.90
2007,10,27,02,16,2.00
2007,10,27,02,17,2.00
2007,10,27,02,18,2.00
2007,10,27,02,19,2.10
2007,10,27,02,20,2.10
2007,10,27,02,21,2.00
2007,10,27,02,22,2.00
2007,10,27,02,23,2.00
2007,10,27,02,24,2.00
2007,10,27,02,25,2.00
2007,10,27,02,26,1.90
2007,10,27,02,27,1.90
2007,10,27,02,28,2.00
2007,10,27,02,29,2.00
2007,10,27,02,30,2.00
2007,10,27,02,31,2.00
2007,10,27,02,32,2.10
2007,10,27,02,33,2.10
2007,10,27,02,34,2.10
2007,10,27,02,35,2.10
2007,10,27,02,36,2.10
2007,10,27,02,37,2.10
2007,10,27,02,38,2.10
2007,10,27,02,39,2.10
2007,10,27,02,40,2.10
2007,10,27,02,41,2.10
2007,10,27,02,42,2.10
2007,10,27,02,43,2.20
2007,10,27,02,44,2.20
2007,10,27,02,45,2.20
2007,10,27,02,46,2.20
2007,10,27,02,47,2.20
2007,10,27,02,48,2.20
2007,10,27,02,49,2.20
2007,10,27,02,50,2.20
2007,10,27,02,51,2.20
2007,10,27,02,52,2.20
2007,10,27,02,53,2.20
2007,10,27,02,54,2.20
2007,10,27,02,55,2.20
2007,10,27,02,56,2.20
2007,10,27,02,57,2.20
2007,10,27,02,58,2.20
2007,10,27,02,59,2.20
2007,10,27,03,00,2.20
2007,10,27,03,01,2.20
2007,10,27,03,02,2.20
2007,10,27,03,03,2.20
2007,10,27,03,04,2.20
2007,10,27,03,05,2.30
2007,10,27,03,06,2.30
2007,10,27,03,07,2.30
2007,10,27,03,08,2.30
2007,10,27,03,09,2.30
2007,10,27,03,10,2.20
2007,10,27,03,11,2.30
2007,10,27,03,12,2.30
2007,10,27,03,13,2.30
2007,10,27,03,14,2.30
2007,10,27,03,15,2.30
2007,10,27,03,16,2.20
2007,10,27,03,17,2.30
2007,10,27,03,18,2.30
2007,10,27,03,19,2.30
2007,10,27,03,20,2.30
2007,10,27,03,21,2.30
2007,10,27,03,22,2.30
2007,10,27,03,23,2.30
2007,10,27,03,24,2.30
2007,10,27,03,25,2.30
2007,10,27,03,26,2.30
2007,10,27,03,27,2.30
2007,10,27,03,28,2.30
2007,10,27,03,29,2.30
2007,10,27,03,30,2.30
2007,10,27,03,31,2.30
2007,10,27,03,32,2.30
2007,10,27,03,33,2.30
2007,10,27,03,34,2.30
2007,10,27,03,35,2.20
2007,10,27,03,36,2.20
2007,10,27,03,37,2.20
2007,10,27,03,38,2.20
2007,10,27,03,39,2.20
2007,10,27,03,40,2.20
2007,10,27,03,41,2.20
2007,10,27,03,42,2.20
2007,10,27,03,43,2.20
2007,10,27,03,44,2.20
2007,10,27,03,45,2.10
2007,10,27,03,46,2.20
2007,10,27,03,47,2.20
2007,10,27,03,48,2.20
2007,10,27,03,49,2.20
2007,10,27,03,50,2.10
2007,10,27,03,51,2.10
2007,10,27,03,52,2.10
2007,10,27,03,53,2.10
2007,10,27,03,54,2.10
2007,10,27,03,55,2.10
2007,10,27,03,56,2.10
2007,10,27,03,57,2.10
2007,10,27,03,58,2.10
2007,10,27,03,59,2.10
2007,10,27,04,00,2.10
2007,10,27,04,01,2.10
2007,10,27,04,02,2.10
2007,10,27,04,03,2.10
2007,10,27,04,04,2.20
2007,10,27,04,05,2.20
2007,10,27,04,06,2.20
2007,10,27,04,07,2.30
2007,10,27,04,08,2.30
2007,10,27,04,09,2.30
2007,10,27,04,10,2.30
2007,10,27,04,11,2.30
2007,10,27,04,12,2.30
2007,10,27,04,13,2.30
2007,10,27,04,14,2.30
2007,10,27,04,15,2.30
2007,10,27,04,16,2.30
2007,10,27,04,17,2.20
2007,10,27,04,18,2.20
2007,10,27,04,19,2.20
2007,10,27,04,20,2.20
2007,10,27,04,21,2.10
2007,10,27,04,22,2.10
2007,10,27,04,23,2.10
2007,10,27,04,24,2.10
2007,10,27,04,25,2.10
2007,10,27,04,26,2.10
2007,10,27,04,27,2.10
2007,10,27,04,28,2.10
2007,10,27,04,29,2.10
2007,10,27,04,30,2.10
2007,10,27,04,31,2.00
2007,10,27,04,32,2.00
2007,10,27,04,33,1.90
2007,10,27,04,34,1.90
2007,10,27,04,35,1.90
2007,10,27,04,36,1.80
2007,10,27,04,37,1.80
2007,10,27,04,38,1.80
2007,10,27,04,39,1.80
2007,10,27,04,40,1.80
2007,10,27,04,41,1.80
2007,10,27,04,42,1.80
2007,10,27,04,43,1.80
2007,10,27,04,44,1.80
2007,10,27,04,45,1.80
2007,10,27,04,46,1.80
2007,10,27,04,47,1.80
2007,10,27,04,48,1.80
2007,10,27,04,49,1.80
2007,10,27,04,50,1.80
2007,10,27,04,51,1.80
2007,10,27,04,52,1.80
2007,10,27,04,53,1.80
2007,10,27,04,54,1.80
2007,10,27,04,55,1.70
2007,10,27,04,56,1.70
2007,10,27,04,57,1.70
2007,10,27,04,58,1.70
2007,10,27,04,59,1.70
2007,10,27,05,00,1.70
2007,10,27,05,01,1.70
2007,10,27,05,02,1.70
2007,10,27,05,03,1.70
2007,10,27,05,04,1.70
2007,10,27,05,05,1.70
2007,10,27,05,06,1.70
2007,10,27,05,07,1.70
2007,10,27,05,08,1.70
2007,10,27,05,09,1.70
2007,10,27,05,10,1.70
2007,10,27,05,11,1.60
2007,10,27,05,12,1.60
2007,10,27,05,13,1.60
2007,10,27,05,14,1.60
2007,10,27,05,15,1.60
2007,10,27,05,16,1.60
2007,10,27,05,17,1.70
2007,10,27,05,18,1.70
2007,10,27,05,19,1.70
2007,10,27,05,20,1.70
2007,10,27,05,21,1.70
2007,10,27,05,22,1.70
2007,10,27,05,23,1.80
2007,10,27,05,24,1.80
2007,10,27,05,25,1.80
2007,10,27,05,26,1.80
2007,10,27,05,27,1.80
2007,10,27,05,28,1.80
2007,10,27,05,29,1.80
2007,10,27,05,30,1.80
2007,10,27,05,31,1.70
2007,10,27,05,32,1.70
2007,10,27,05,33,1.70
2007,10,27,05,34,1.70
2007,10,27,05,35,1.70
2007,10,27,05,36,1.70
2007,10,27,05,37,1.70
2007,10,27,05,38,1.70
2007,10,27,05,39,1.80
2007,10,27,05,40,1.80
2007,10,27,05,41,1.80
2007,10,27,05,42,1.80
2007,10,27,05,43,1.90
2007,10,27,05,44,1.90
2007,10,27,05,45,1.90
2007,10,27,05,46,1.90
2007,10,27,05,47,1.90
2007,10,27,05,48,1.90
2007,10,27,05,49,1.90
2007,10,27,05,50,1.90
2007,10,27,05,51,1.90
2007,10,27,05,52,1.90
2007,10,27,05,53,1.90
2007,10,27,05,54,1.90
2007,10,27,05,55,1.90
2007,10,27,05,56,1.90
2007,10,27,05,57,2.00
2007,10,27,05,58,2.00
2007,10,27,05,59,2.10
2007,10,27,06,00,2.10
2007,10,27,06,01,2.10
2007,10,27,06,02,2.10
2007,10,27,06,03,2.10
2007,10,27,06,04,2.00
2007,10,27,06,05,2.00
2007,10,27,06,06,2.10
2007,10,27,06,07,2.10
2007,10,27,06,08,2.00
2007,10,27,06,09,2.00
2007,10,27,06,10,1.90
2007,10,27,06,11,1.90
2007,10,27,06,12,1.90
2007,10,27,06,13,1.90
2007,10,27,06,14,1.90
2007,10,27,06,15,1.90
2007,10,27,06,16,1.90
2007,10,27,06,17,2.00
2007,10,27,06,18,2.00
2007,10,27,06,19,2.10
2007,10,27,06,20,2.10
2007,10,27,06,21,2.10
2007,10,27,06,22,2.20
2007,10,27,06,23,2.20
2007,10,27,06,24,2.20
2007,10,27,06,25,2.20
2007,10,27,06,26,2.20
2007,10,27,06,27,2.20
2007,10,27,06,28,2.20
2007,10,27,06,29,2.10
2007,10,27,06,30,2.10
2007,10,27,06,31,2.10
2007,10,27,06,32,2.10
2007,10,27,06,33,2.10
2007,10,27,06,34,2.10
2007,10,27,06,35,2.10
2007,10,27,06,36,2.10
2007,10,27,06,37,2.10
2007,10,27,06,38,2.10
2007,10,27,06,39,2.10
2007,10,27,06,40,2.10
2007,10,27,06,41,2.10
2007,10,27,06,42,2.10
2007,10,27,06,43,2.20
2007,10,27,06,44,2.20
2007,10,27,06,45,2.20
2007,10,27,06,46,2.20
2007,10,27,06,47,2.20
2007,10,27,06,48,2.20
2007,10,27,06,49,2.30
2007,10,27,06,50,2.30
2007,10,27,06,51,2.30
2007,10,27,06,52,2.30
2007,10,27,06,53,2.40
2007,10,27,06,54,2.40
2007,10,27,06,55,2.40
2007,10,27,06,56,2.50
2007,10,27,06,57,2.50
2007,10,27,06,58,2.60
2007,10,27,06,59,2.60
2007,10,27,07,00,2.60
2007,10,27,07,01,2.60
2007,10,27,07,02,2.70
2007,10,27,07,03,2.70
2007,10,27,07,04,2.70
2007,10,27,07,05,2.70
2007,10,27,07,06,2.70
2007,10,27,07,07,2.70
2007,10,27,07,08,2.80
2007,10,27,07,09,2.80
2007,10,27,07,10,2.80
2007,10,27,07,11,2.80
2007,10,27,07,12,2.80
2007,10,27,07,13,2.90
2007,10,27,07,14,3.00
2007,10,27,07,15,3.10
2007,10,27,07,16,3.20
2007,10,27,07,17,3.20
2007,10,27,07,18,3.30
2007,10,27,07,19,3.30
2007,10,27,07,20,3.30
2007,10,27,07,21,3.30
2007,10,27,07,22,3.30
2007,10,27,07,23,3.40
2007,10,27,07,24,3.50
2007,10,27,07,25,3.60
2007,10,27,07,26,3.60
2007,10,27,07,27,3.70
2007,10,27,07,28,3.70
2007,10,27,07,29,3.70
2007,10,27,07,30,3.70
2007,10,27,07,31,3.70
2007,10,27,07,32,3.70
2007,10,27,07,33,3.60
2007,10,27,07,34,3.50
2007,10,27,07,35,3.40
2007,10,27,07,36,3.40
2007,10,27,07,37,3.40
2007,10,27,07,38,3.40
2007,10,27,07,39,3.40
2007,10,27,07,40,3.40
2007,10,27,07,41,3.40
2007,10,27,07,42,3.40
2007,10,27,07,43,3.40
2007,10,27,07,44,3.40
2007,10,27,07,45,3.40
2007,10,27,07,46,3.50
2007,10,27,07,47,3.60
2007,10,27,07,48,3.70
2007,10,27,07,49,3.80
2007,10,27,07,50,3.80
2007,10,27,07,51,3.90
2007,10,27,07,52,4.00
2007,10,27,07,53,4.10
2007,10,27,07,54,4.20
2007,10,27,07,55,4.30
2007,10,27,07,56,4.40
2007,10,27,07,57,4.40
2007,10,27,07,58,4.50
2007,10,27,07,59,4.50
2007,10,27,08,00,4.50
2007,10,27,08,01,4.50
2007,10,27,08,02,4.60
2007,10,27,08,03,4.70
2007,10,27,08,04,4.70
2007,10,27,08,05,4.80
2007,10,27,08,06,4.80
2007,10,27,08,07,4.80
2007,10,27,08,08,4.80
2007,10,27,08,09,4.80
2007,10,27,08,10,4.70
2007,10,27,08,11,4.70
2007,10,27,08,12,4.70
2007,10,27,08,13,4.70
2007,10,27,08,14,4.70
2007,10,27,08,15,4.70
2007,10,27,08,16,4.70
2007,10,27,08,17,4.70
2007,10,27,08,18,4.70
2007,10,27,08,19,4.70
2007,10,27,08,20,4.70
2007,10,27,08,21,4.70
2007,10,27,08,22,4.80
2007,10,27,08,23,4.80
2007,10,27,08,24,4.90
2007,10,27,08,25,4.90
2007,10,27,08,26,5.00
2007,10,27,08,27,5.00
2007,10,27,08,28,5.10
2007,10,27,08,29,5.10
2007,10,27,08,30,5.10
2007,10,27,08,31,5.10
2007,10,27,08,32,5.10
2007,10,27,08,33,5.10
2007,10,27,08,34,5.10
2007,10,27,08,35,5.10
2007,10,27,08,36,5.20
2007,10,27,08,37,5.20
2007,10,27,08,38,5.30
2007,10,27,08,39,5.30
2007,10,27,08,40,5.30
2007,10,27,08,41,5.40
2007,10,27,08,42,5.40
2007,10,27,08,43,5.40
2007,10,27,08,44,5.40
2007,10,27,08,45,5.40
2007,10,27,08,46,5.50
2007,10,27,08,47,5.50
2007,10,27,08,48,5.50
2007,10,27,08,49,5.60
2007,10,27,08,50,5.60
2007,10,27,08,51,5.60
2007,10,27,08,52,5.60
2007,10,27,08,53,5.60
2007,10,27,08,54,5.50
2007,10,27,08,55,5.50
2007,10,27,08,56,5.50
2007,10,27,08,57,5.50
2007,10,27,08,58,5.60
2007,10,27,08,59,5.60
2007,10,27,09,00,5.60
2007,10,27,09,01,5.60
2007,10,27,09,02,5.70
2007,10,27,09,03,5.70
2007,10,27,09,04,5.80
2007,10,27,09,05,5.80
2007,10,27,09,06,5.80
2007,10,27,09,07,5.90
2007,10,27,09,08,5.90
2007,10,27,09,09,6.00
2007,10,27,09,10,6.00
2007,10,27,09,11,6.10
2007,10,27,09,12,6.10
2007,10,27,09,13,6.10
2007,10,27,09,14,6.10
2007,10,27,09,15,6.10
2007,10,27,09,16,6.10
2007,10,27,09,17,6.10
2007,10,27,09,18,6.10
2007,10,27,09,19,6.10
2007,10,27,09,20,6.00
2007,10,27,09,21,5.90
2007,10,27,09,22,5.90
2007,10,27,09,23,6.00
2007,10,27,09,24,6.00
2007,10,27,09,25,6.00
2007,10,27,09,26,6.00
2007,10,27,09,27,6.00
2007,10,27,09,28,6.00
2007,10,27,09,29,6.10
2007,10,27,09,30,6.10
2007,10,27,09,31,6.10
2007,10,27,09,32,6.20
2007,10,27,09,33,6.20
2007,10,27,09,34,6.20
2007,10,27,09,35,6.20
2007,10,27,09,36,6.20
2007,10,27,09,37,6.20
2007,10,27,09,38,6.20
2007,10,27,09,39,6.30
2007,10,27,09,40,6.30
2007,10,27,09,41,6.30
2007,10,27,09,42,6.40
2007,10,27,09,43,6.40
2007,10,27,09,44,6.40
2007,10,27,09,45,6.50
2007,10,27,09,46,6.50
2007,10,27,09,47,6.50
2007,10,27,09,48,6.40
2007,10,27,09,49,6.40
2007,10,27,09,50,6.40
2007,10,27,09,51,6.40
2007,10,27,09,52,6.40
2007,10,27,09,53,6.40
2007,10,27,09,54,6.50
2007,10,27,09,55,6.50
2007,10,27,09,56,6.50
2007,10,27,09,57,6.50
2007,10,27,09,58,6.60
2007,10,27,09,59,6.60
2007,10,27,10,00,6.60
2007,10,27,10,01,6.70
2007,10,27,10,02,6.70
2007,10,27,10,03,6.80
2007,10,27,10,04,6.80
2007,10,27,10,05,6.90
2007,10,27,10,06,6.90
2007,10,27,10,07,7.00
2007,10,27,10,08,7.00
2007,10,27,10,09,7.10
2007,10,27,10,10,7.10
2007,10,27,10,11,7.20
2007,10,27,10,12,7.20
2007,10,27,10,13,7.20
2007,10,27,10,14,7.20
2007,10,27,10,15,7.30
2007,10,27,10,16,7.30
2007,10,27,10,17,7.40
2007,10,27,10,18,7.40
2007,10,27,10,19,7.40
2007,10,27,10,20,7.50
2007,10,27,10,21,7.50
2007,10,27,10,22,7.60
2007,10,27,10,23,7.60
2007,10,27,10,24,7.60
2007,10,27,10,25,7.60
2007,10,27,10,26,7.70
2007,10,27,10,27,7.70
2007,10,27,10,28,7.70
2007,10,27,10,29,7.70
2007,10,27,10,30,7.70
2007,10,27,10,31,7.80
2007,10,27,10,32,7.80
2007,10,27,10,33,7.80
2007,10,27,10,34,7.80
2007,10,27,10,35,7.80
2007,10,27,10,36,7.80
2007,10,27,10,37,7.90
2007,10,27,10,38,7.80
2007,10,27,10,39,7.80
2007,10,27,10,40,7.80
2007,10,27,10,41,7.80
2007,10,27,10,42,7.80
2007,10,27,10,43,7.80
2007,10,27,10,44,7.70
2007,10,27,10,45,7.70
2007,10,27,10,46,7.70
2007,10,27,10,47,7.80
2007,10,27,10,48,7.80
2007,10,27,10,49,7.80
2007,10,27,10,50,7.80
2007,10,27,10,51,7.80
2007,10,27,10,52,7.80
2007,10,27,10,53,7.80
2007,10,27,10,54,7.80
2007,10,27,10,55,7.80
2007,10,27,10,56,7.80
2007,10,27,10,57,7.90
2007,10,27,10,58,7.90
2007,10,27,10,59,7.90
2007,10,27,11,00,7.90
2007,10,27,11,01,7.90
2007,10,27,11,02,8.00
2007,10,27,11,03,8.00
2007,10,27,11,04,8.00
2007,10,27,11,05,8.10
2007,10,27,11,06,8.10
2007,10,27,11,07,8.10
2007,10,27,11,08,8.10
2007,10,27,11,09,8.20
2007,10,27,11,10,8.20
2007,10,27,11,11,8.20
2007,10,27,11,12,8.20
2007,10,27,11,13,8.20
2007,10,27,11,14,8.20
2007,10,27,11,15,8.20
2007,10,27,11,16,8.20
2007,10,27,11,17,8.30
2007,10,27,11,18,8.30
2007,10,27,11,19,8.30
2007,10,27,11,20,8.30
2007,10,27,11,21,8.30
2007,10,27,11,22,8.30
2007,10,27,11,23,8.30
2007,10,27,11,24,8.30
2007,10,27,11,25,8.40
2007,10,27,11,26,8.40
2007,10,27,11,27,8.50
2007,10,27,11,28,8.60
2007,10,27,11,29,8.60
2007,10,27,11,30,8.70
2007,10,27,11,31,8.70
2007,10,27,11,32,8.80
2007,10,27,11,33,8.80
2007,10,27,11,34,8.90
2007,10,27,11,35,8.90
2007,10,27,11,36,8.90
2007,10,27,11,37,8.90
2007,10,27,11,38,8.90
2007,10,27,11,39,8.80
2007,10,27,11,40,8.80
2007,10,27,11,41,8.70
2007,10,27,11,42,8.70
2007,10,27,11,43,8.60
2007,10,27,11,44,8.60
2007,10,27,11,45,8.60
2007,10,27,11,46,8.50
2007,10,27,11,47,8.50
2007,10,27,11,48,8.40
2007,10,27,11,49,8.40
2007,10,27,11,50,8.50
2007,10,27,11,51,8.50
2007,10,27,11,52,8.60
2007,10,27,11,53,8.60
2007,10,27,11,54,8.60
2007,10,27,11,55,8.60
2007,10,27,11,56,8.60
2007,10,27,11,57,8.60
2007,10,27,11,58,8.70
2007,10,27,11,59,8.70
2007,10,27,12,00,8.70
2007,10,27,12,01,8.70
2007,10,27,12,02,8.70
2007,10,27,12,03,8.70
2007,10,27,12,04,8.70
2007,10,27,12,05,8.70
2007,10,27,12,06,8.70
2007,10,27,12,07,8.70
2007,10,27,12,08,8.70
2007,10,27,12,09,8.70
2007,10,27,12,10,8.60
2007,10,27,12,11,8.60
2007,10,27,12,12,8.60
2007,10,27,12,13,8.50
2007,10,27,12,14,8.50
2007,10,27,12,15,8.50
2007,10,27,12,16,8.60
2007,10,27,12,17,8.60
2007,10,27,12,18,8.60
2007,10,27,12,19,8.60
2007,10,27,12,20,8.70
2007,10,27,12,21,8.60
2007,10,27,12,22,8.60
2007,10,27,12,23,8.60
2007,10,27,12,24,8.60
2007,10,27,12,25,8.60
2007,10,27,12,26,8.60
2007,10,27,12,27,8.60
2007,10,27,12,28,8.60
2007,10,27,12,29,8.60
2007,10,27,12,30,8.60
2007,10,27,12,31,8.70
2007,10,27,12,32,8.70
2007,10,27,12,33,8.70
2007,10,27,12,34,8.70
2007,10,27,12,35,8.70
2007,10,27,12,36,8.70
2007,10,27,12,37,8.70
2007,10,27,12,38,8.70
2007,10,27,12,39,8.70
2007,10,27,12,40,8.70
2007,10,27,12,41,8.70
2007,10,27,12,42,8.80
2007,10,27,12,43,8.80
2007,10,27,12,44,8.80
2007,10,27,12,45,8.80
2007,10,27,12,46,8.80
2007,10,27,12,47,8.90
2007,10,27,12,48,8.90
2007,10,27,12,49,8.90
2007,10,27,12,50,8.90
2007,10,27,12,51,8.90
2007,10,27,12,52,8.90
2007,10,27,12,53,8.80
2007,10,27,12,54,8.80
2007,10,27,12,55,8.70
2007,10,27,12,56,8.70
2007,10,27,12,57,8.70
2007,10,27,12,58,8.70
2007,10,27,12,59,8.70
2007,10,27,13,00,8.70
2007,10,27,13,01,8.70
2007,10,27,13,02,8.70
2007,10,27,13,03,8.70
2007,10,27,13,04,8.60
2007,10,27,13,05,8.60
2007,10,27,13,06,8.60
2007,10,27,13,07,8.60
2007,10,27,13,08,8.60
2007,10,27,13,09,8.60
2007,10,27,13,10,8.60
2007,10,27,13,11,8.60
2007,10,27,13,12,8.60
2007,10,27,13,13,8.70
2007,10,27,13,14,8.70
2007,10,27,13,15,8.70
2007,10,27,13,16,8.70
2007,10,27,13,17,8.70
2007,10,27,13,18,8.70
2007,10,27,13,19,8.70
2007,10,27,13,20,8.60
2007,10,27,13,21,8.60
2007,10,27,13,22,8.60
2007,10,27,13,23,8.60
2007,10,27,13,24,8.60
2007,10,27,13,25,8.60
2007,10,27,13,26,8.60
2007,10,27,13,27,8.60
2007,10,27,13,28,8.60
2007,10,27,13,29,8.60
2007,10,27,13,30,8.60
2007,10,27,13,31,8.60
2007,10,27,13,32,8.60
2007,10,27,13,33,8.60
2007,10,27,13,34,8.50
2007,10,27,13,35,8.50
2007,10,27,13,36,8.50
2007,10,27,13,37,8.60
2007,10,27,13,38,8.60
2007,10,27,13,39,8.60
2007,10,27,13,40,8.60
2007,10,27,13,41,8.60
2007,10,27,13,42,8.60
2007,10,27,13,43,8.50
2007,10,27,13,44,8.50
2007,10,27,13,45,8.50
2007,10,27,13,46,8.50
2007,10,27,13,47,8.50
2007,10,27,13,48,8.50
2007,10,27,13,49,8.50
2007,10,27,13,50,8.60
2007,10,27,13,51,8.60
2007,10,27,13,52,8.60
2007,10,27,13,53,8.60
2007,10,27,13,54,8.60
2007,10,27,13,55,8.60
2007,10,27,13,56,8.60
2007,10,27,13,57,8.60
2007,10,27,13,58,8.60
2007,10,27,13,59,8.60
2007,10,27,14,00,8.60
2007,10,27,14,01,8.70
2007,10,27,14,02,8.70
2007,10,27,14,03,8.70
2007,10,27,14,04,8.70
2007,10,27,14,05,8.70
2007,10,27,14,06,8.70
2007,10,27,14,07,8.70
2007,10,27,14,08,8.70
2007,10,27,14,09,8.70
2007,10,27,14,10,8.70
2007,10,27,14,11,8.70
2007,10,27,14,12,8.70
2007,10,27,14,13,8.70
2007,10,27,14,14,8.70
2007,10,27,14,15,8.70
2007,10,27,14,16,8.70
2007,10,27,14,17,8.80
2007,10,27,14,18,8.80
2007,10,27,14,19,8.80
2007,10,27,14,20,8.80
2007,10,27,14,21,8.80
2007,10,27,14,22,8.80
2007,10,27,14,23,8.80
2007,10,27,14,24,8.80
2007,10,27,14,25,8.80
2007,10,27,14,26,8.80
2007,10,27,14,27,8.70
2007,10,27,14,28,8.70
2007,10,27,14,29,8.70
2007,10,27,14,30,8.70
2007,10,27,14,31,8.70
2007,10,27,14,32,8.70
2007,10,27,14,33,8.80
2007,10,27,14,34,8.80
2007,10,27,14,35,8.80
2007,10,27,14,36,8.80
2007,10,27,14,37,8.80
2007,10,27,14,38,8.80
2007,10,27,14,39,8.80
2007,10,27,14,40,8.80
2007,10,27,14,41,8.80
2007,10,27,14,42,8.80
2007,10,27,14,43,8.80
2007,10,27,14,44,8.80
2007,10,27,14,45,8.80
2007,10,27,14,46,8.80
2007,10,27,14,47,8.80
2007,10,27,14,48,8.80
2007,10,27,14,49,8.80
2007,10,27,14,50,8.80
2007,10,27,14,51,8.80
2007,10,27,14,52,8.80
2007,10,27,14,53,8.80
2007,10,27,14,54,8.80
2007,10,27,14,55,8.80
2007,10,27,14,56,8.80
2007,10,27,14,57,8.70
2007,10,27,14,58,8.70
2007,10,27,14,59,8.70
2007,10,27,15,00,8.70
2007,10,27,15,01,8.70
2007,10,27,15,02,8.70
2007,10,27,15,03,8.70
2007,10,27,15,04,8.80
2007,10,27,15,05,8.80
2007,10,27,15,06,8.80
2007,10,27,15,07,8.80
2007,10,27,15,08,8.80
2007,10,27,15,09,8.80
2007,10,27,15,10,8.80
2007,10,27,15,11,8.80
2007,10,27,15,12,8.80
2007,10,27,15,13,8.80
2007,10,27,15,14,8.80
2007,10,27,15,15,8.80
2007,10,27,15,16,8.80
2007,10,27,15,17,8.80
2007,10,27,15,18,8.80
2007,10,27,15,19,8.80
2007,10,27,15,20,8.80
2007,10,27,15,21,8.70
2007,10,27,15,22,8.70
2007,10,27,15,23,8.70
2007,10,27,15,24,8.70
2007,10,27,15,25,8.70
2007,10,27,15,26,8.70
2007,10,27,15,27,8.70
2007,10,27,15,28,8.70
2007,10,27,15,29,8.70
2007,10,27,15,30,8.70
2007,10,27,15,31,8.70
2007,10,27,15,32,8.70
2007,10,27,15,33,8.70
2007,10,27,15,34,8.70
2007,10,27,15,35,8.70
2007,10,27,15,36,8.70
2007,10,27,15,37,8.70
2007,10,27,15,38,8.60
2007,10,27,15,39,8.60
2007,10,27,15,40,8.60
2007,10,27,15,41,8.60
2007,10,27,15,42,8.60
2007,10,27,15,43,8.60
2007,10,27,15,44,8.60
2007,10,27,15,45,8.60
2007,10,27,15,46,8.60
2007,10,27,15,47,8.60
2007,10,27,15,48,8.60
2007,10,27,15,49,8.60
2007,10,27,15,50,8.60
2007,10,27,15,51,8.50
2007,10,27,15,52,8.50
2007,10,27,15,53,8.50
2007,10,27,15,54,8.50
2007,10,27,15,55,8.50
2007,10,27,15,56,8.50
2007,10,27,15,57,8.40
2007,10,27,15,58,8.40
2007,10,27,15,59,8.40
2007,10,27,16,00,8.40
2007,10,27,16,01,8.40
2007,10,27,16,02,8.40
2007,10,27,16,03,8.40
2007,10,27,16,04,8.40
2007,10,27,16,05,8.40
2007,10,27,16,06,8.40
2007,10,27,16,07,8.40
2007,10,27,16,08,8.40
2007,10,27,16,09,8.40
2007,10,27,16,10,8.40
2007,10,27,16,11,8.40
2007,10,27,16,12,8.40
2007,10,27,16,13,8.40
2007,10,27,16,14,8.40
2007,10,27,16,15,8.40
2007,10,27,16,16,8.40
2007,10,27,16,17,8.40
2007,10,27,16,18,8.40
2007,10,27,16,19,8.40
2007,10,27,16,20,8.40
2007,10,27,16,21,8.40
2007,10,27,16,22,8.40
2007,10,27,16,23,8.40
2007,10,27,16,24,8.40
2007,10,27,16,25,8.40
2007,10,27,16,26,8.40
2007,10,27,16,27,8.40
2007,10,27,16,28,8.40
2007,10,27,16,29,8.40
2007,10,27,16,30,8.40
2007,10,27,16,31,8.40
2007,10,27,16,32,8.40
2007,10,27,16,33,8.40
2007,10,27,16,34,8.40
2007,10,27,16,35,8.40
2007,10,27,16,36,8.40
2007,10,27,16,37,8.40
2007,10,27,16,38,8.40
2007,10,27,16,39,8.40
2007,10,27,16,40,8.40
2007,10,27,16,41,8.40
2007,10,27,16,42,8.40
2007,10,27,16,43,8.40
2007,10,27,16,44,8.40
2007,10,27,16,45,8.50
2007,10,27,16,46,8.50
2007,10,27,16,47,8.50
2007,10,27,16,48,8.50
2007,10,27,16,49,8.50
2007,10,27,16,50,8.50
2007,10,27,16,51,8.50
2007,10,27,16,52,8.50
2007,10,27,16,53,8.50
2007,10,27,16,54,8.50
2007,10,27,16,55,8.50
2007,10,27,16,56,8.50
2007,10,27,16,57,8.50
2007,10,27,16,58,8.50
2007,10,27,16,59,8.50
2007,10,27,17,00,8.40
2007,10,27,17,01,8.50
2007,10,27,17,02,8.40
2007,10,27,17,03,8.40
2007,10,27,17,04,8.40
2007,10,27,17,05,8.40
2007,10,27,17,06,8.40
2007,10,27,17,07,8.40
2007,10,27,17,08,8.40
2007,10,27,17,09,8.40
2007,10,27,17,10,8.40
2007,10,27,17,11,8.30
2007,10,27,17,12,8.30
2007,10,27,17,13,8.30
2007,10,27,17,14,8.30
2007,10,27,17,15,8.30
2007,10,27,17,16,8.30
2007,10,27,17,17,8.30
2007,10,27,17,18,8.30
2007,10,27,17,19,8.30
2007,10,27,17,20,8.30
2007,10,27,17,21,8.30
2007,10,27,17,22,8.30
2007,10,27,17,23,8.30
2007,10,27,17,24,8.30
2007,10,27,17,25,8.30
2007,10,27,17,26,8.20
2007,10,27,17,27,8.20
2007,10,27,17,28,8.20
2007,10,27,17,29,8.20
2007,10,27,17,30,8.20
2007,10,27,17,31,8.20
2007,10,27,17,32,8.20
2007,10,27,17,33,8.20
2007,10,27,17,34,8.20
2007,10,27,17,35,8.20
2007,10,27,17,36,8.20
2007,10,27,17,37,8.20
2007,10,27,17,38,8.20
2007,10,27,17,39,8.20
2007,10,27,17,40,8.20
2007,10,27,17,41,8.20
2007,10,27,17,42,8.20
2007,10,27,17,43,8.10
2007,10,27,17,44,8.10
2007,10,27,17,45,8.10
2007,10,27,17,46,8.10
2007,10,27,17,47,8.10
2007,10,27,17,48,8.10
2007,10,27,17,49,8.10
2007,10,27,17,50,8.10
2007,10,27,17,51,8.10
2007,10,27,17,52,8.10
2007,10,27,17,53,8.10
2007,10,27,17,54,8.00
2007,10,27,17,55,8.00
2007,10,27,17,56,8.00
2007,10,27,17,57,8.00
2007,10,27,17,58,8.00
2007,10,27,17,59,8.00
2007,10,27,18,00,8.00
2007,10,27,18,01,7.90
2007,10,27,18,02,7.90
2007,10,27,18,03,7.90
2007,10,27,18,04,7.90
2007,10,27,18,05,7.90
2007,10,27,18,06,7.90